SID,Date,Time,pH,Iron,Mn,Color,Turbidity,Analyst
23155,01/01/2010,"1215      ",6.11,0.96,0.340,87,1.12,"TCF                                               "
23156,01/02/2010,"1710      ",6.10,0.92,0.400,87,1.08,"MT                                                "
23157,01/03/2010,"945       ",6.13,0.93,0.350,91,1.09,"sbk                                               "
23158,01/04/2010,"915       ",6.21,0.99,0.320,91,1.28,"TCF                                               "
23159,01/05/2010,"0830      ",6.22,0.85,0.580,79,1.12,"DF                                                "
23160,01/06/2010,"0825      ",5.90,0.95,0.420,81,1.10,"JF                                                "
23161,01/07/2010,"0920      ",5.94,0.94,0.390,76,1.04,"JF                                                "
23162,01/08/2010,"0822      ",5.86,0.93,0.460,73,1.05,"TF                                                "
23163,01/09/2010,"915       ",5.89,0.89,0.400,73,1.09,"SBK                                               "
23164,01/10/2010,"0855      ",6.03,1.03,0.430,85,1.63,"TF                                                "
23165,01/11/2010,"0928      ",5.97,0.88,0.440,67,1.01,"TF                                                "
23166,01/12/2010,"0835      ",6.13,0.89,0.400,64,1.14,"MT                                                "
23167,01/13/2010,"0845      ",5.90,0.86,0.510,67,1.11,"mt                                                "
23168,01/14/2010,"0850      ",5.95,0.88,0.470,62,1.06,"MT                                                "
23169,01/15/2010,"0830      ",5.90,0.86,0.480,62,1.01,"JF                                                "
23170,01/16/2010,"1230      ",6.08,0.85,0.460,66,1.24,"sbk                                               "
23171,01/17/2010,"900       ",5.96,0.88,0.400,63,1.25,"sbk                                               "
23172,01/18/2010,"0815      ",6.03,0.86,0.360,70,1.02,"DF                                                "
23173,01/19/2010,"0855      ",5.95,0.86,0.480,58,1.24,"TF                                                "
23174,01/20/2010,"920       ",5.90,0.85,0.460,51,0.99,"TCF                                               "
23175,01/21/2010,"905       ",5.99,0.83,0.470,52,1.04,"JF                                                "
23176,01/22/2010,"810       ",6.00,0.87,0.480,52,1.09,"JF                                                "
23177,01/23/2010,"905       ",5.95,0.81,0.480,45,1.18,"sbk                                               "
23178,01/24/2010,"1100      ",5.90,0.83,0.490,43,0.98,"sbk                                               "
23179,01/25/2010,"1055      ",5.87,0.82,0.470,45,0.90,"TF                                                "
23180,01/26/2010,"0820      ",5.88,0.80,0.600,43,0.84,"mt                                                "
23181,01/27/2010,"0845      ",5.88,0.80,0.560,42,0.84,"mt                                                "
23182,01/28/2010,"0752      ",6.01,0.60,0.630,57,2.15,"mt                                                "
23183,01/29/2010,"0825      ",6.05,0.80,0.460,42,0.82,"JF                                                "
23184,01/30/2010,"1005      ",6.01,0.82,0.460,46,0.85,"TF                                                "
23185,01/31/2010,"0905      ",6.04,0.83,0.460,45,0.77,"TF                                                "
23186,02/01/2010,"0820      ",6.40,0.81,0.370,46,0.82,"DF                                                "
23187,02/02/2010,"0840      ",6.10,0.80,0.390,43,0.68,"mt                                                "
23188,02/03/2010,"0845      ",6.10,0.73,0.450,43,0.70,"mt                                                "
23189,02/04/2010,"0758      ",6.00,0.67,0.410,17,1.04,"mt                                                "
23190,02/05/2010,"0835      ",5.98,0.77,0.460,42,0.71,"JF                                                "
23191,02/06/2010,"845       ",6.07,0.76,0.360,43,0.82,"sbk                                               "
23192,02/07/2010,"825       ",6.05,0.77,0.410,43,1.06,"sbk                                               "
23193,02/08/2010,"0820      ",6.21,0.83,0.430,44,0.83,"DF                                                "
23194,02/09/2010,"0805      ",5.98,0.82,0.420,58,1.57,"mt                                                "
23195,02/10/2010,"0850      ",6.01,0.83,0.420,47,0.80,"mt                                                "
23196,02/11/2010,"825       ",6.02,0.73,0.430,42,0.84,"JF                                                "
23197,02/12/2010,"840       ",5.99,0.71,0.380,41,0.74,"JF                                                "
23198,02/13/2010,"855       ",5.99,0.71,0.370,43,1.77,"sbk                                               "
23199,02/14/2010,"930       ",6.09,0.69,0.440,37,0.95,"sbk                                               "
23200,02/15/2010,"845       ",6.05,0.71,0.310,37,0.90,"JF                                                "
23201,02/16/2010,"1000      ",6.06,0.70,0.450,38,1.09,"sbk                                               "
23202,02/17/2010,"0900      ",6.12,0.81,0.390,41,0.93,"DF                                                "
23203,02/18/2010,"850       ",5.92,0.84,0.410,53,1.17,"JF                                                "
23204,02/19/2010,"825       ",5.99,0.81,0.440,37,1.12,"JF                                                "
23205,02/20/2010,"0800      ",6.23,0.70,0.460,32,0.74,"MT                                                "
23206,02/21/2010,"835       ",5.97,0.69,0.450,29,0.75,"sbk                                               "
23207,02/22/2010,"830       ",6.33,0.73,0.560,29,0.85,"DF                                                "
23208,02/23/2010,"0800      ",5.99,0.77,0.440,31,0.90,"mt                                                "
23209,02/24/2010,"0820      ",6.01,0.69,0.460,30,0.92,"mt                                                "
23210,02/25/2010,"0830      ",5.92,0.71,0.700,38,0.81,"mt                                                "
23211,02/26/2010,"0825      ",5.93,0.70,0.640,30,0.94,"JF                                                "
23212,02/27/2010,"910       ",6.05,0.75,0.450,30,0.92,"sbk                                               "
23213,02/28/2010,"0830      ",5.93,0.75,0.510,30,0.80,"TF                                                "
23214,03/01/2010,"1105      ",6.05,0.73,0.640,35,1.01,"SC                                                "
23215,03/02/2010,"0830      ",6.05,0.74,0.470,35,1.04,"mt                                                "
23216,03/03/2010,"0800      ",6.10,0.69,0.450,44,2.10,"DF                                                "
23217,03/04/2010,"0800      ",6.17,0.74,0.260,37,1.36,"DF                                                "
23218,03/05/2010,"0820      ",6.08,0.74,0.460,35,1.01,"JF                                                "
23219,03/06/2010,"0800      ",9.95,0.84,0.410,41,1.80,"mt                                                "
23220,03/07/2010,"930       ",6.11,0.81,0.420,40,0.15,"sbk                                               "
23221,03/08/2010,"0925      ",5.93,0.74,0.450,33,1.06,"TF                                                "
23222,03/09/2010,"08025     ",5.93,0.87,0.390,44,0.87,"mt                                                "
23223,03/10/2010,"0800      ",5.95,0.70,0.390,28,0.87,"mt                                                "
23224,03/11/2010,"0820      ",6.04,0.72,0.470,30,0.87,"mt                                                "
23225,03/12/2010,"815       ",6.14,0.75,0.390,34,1.04,"JF                                                "
23226,03/13/2010,"945       ",6.08,0.75,0.470,37,2.05,"sbk                                               "
23227,03/14/2010,"1035      ",6.03,0.89,0.430,43,2.44,"sbk                                               "
23228,03/15/2010,"0920      ",5.92,0.74,0.470,39,0.95,"TF                                                "
23229,03/16/2010,"0825      ",5.98,0.85,0.100,48,2.50,"mt                                                "
23230,03/17/2010,"0820      ",6.00,0.70,0.460,39,0.84,"mt                                                "
23231,03/18/2010,"0830      ",6.14,0.70,0.450,38,0.87,"DF                                                "
23232,03/19/2010,"0830      ",6.03,0.67,0.420,46,0.92,"JF                                                "
23233,03/20/2010,"845       ",6.01,0.72,0.340,51,1.58,"sbk                                               "
23234,03/21/2010,"930       ",5.94,0.70,0.310,54,1.27,"sbk                                               "
23235,03/22/2010,"0755      ",6.27,0.69,0.100,51,0.96,"DF                                                "
23236,03/23/2010,"0805      ",5.96,0.69,0.310,52,1.02,"mt                                                "
23237,03/24/2010,"0805      ",5.97,0.72,0.310,64,1.88,"mt                                                "
23238,03/25/2010,"0805      ",6.23,0.76,0.310,72,2.79,"mt                                                "
23239,03/26/2010,"0905      ",5.94,0.69,0.320,57,1.00,"TF                                                "
23240,03/27/2010,"900       ",5.98,0.71,0.230,64,1.96,"SBK                                               "
23241,03/28/2010,"900       ",6.06,0.68,0.230,68,2.58,"SBK                                               "
23242,03/29/2010,"0915      ",5.92,0.69,0.320,62,0.88,"TF                                                "
23243,03/30/2010,"0810      ",5.96,0.71,0.240,64,0.96,"JF                                                "
23244,03/31/2010,"815       ",6.00,0.66,0.280,70,1.44,"mt                                                "
23245,04/01/2010,"1600      ",6.00,0.98,0.310,115,4.12,"JR                                                "
23246,04/02/2010,"0805      ",6.00,0.73,0.250,75,1.02,"JF                                                "
23247,04/03/2010,"830       ",5.95,0.67,0.250,77,0.96,"sbk                                               "
23248,04/04/2010,"835       ",6.09,0.68,0.310,77,0.73,"sbk                                               "
23249,04/05/2010,"0830      ",6.28,0.70,0.280,73,0.73,"DF                                                "
23250,04/06/2010,"0800      ",6.29,0.69,0.310,75,0.63,"DF                                                "
23251,04/07/2010,"0720      ",5.99,0.66,0.300,69,0.63,"mt                                                "
23252,04/08/2010,"0720      ",6.12,0.61,0.370,86,1.59,"mt                                                "
23253,04/09/2010,"0800      ",6.11,0.64,0.320,85,1.00,"JF                                                "
23254,04/10/2010,"930       ",6.05,0.70,0.250,86,0.90,"sbk                                               "
23255,04/11/2010,"815       ",5.95,0.70,0.260,88,0.70,"SBK                                               "
23256,04/12/2010,"0945      ",5.95,0.73,0.230,94,0.68,"TF                                                "
23257,04/13/2010,"0745      ",6.01,0.71,0.180,104,1.40,"mt                                                "
23258,04/14/2010,"0730      ",5.95,0.74,0.110,108,1.37,"mt                                                "
23259,04/15/2010,"0745      ",6.05,0.81,0.260,103,0.96,"DF                                                "
23260,04/16/2010,"0800      ",5.99,0.81,0.260,106,1.18,"JF                                                "
23261,04/17/2010,"0908      ",5.92,0.78,0.260,100,0.82,"TF                                                "
23262,04/18/2010,"830       ",6.02,0.77,0.220,104,1.36,"sbk                                               "
23263,04/19/2010,"0800      ",5.99,0.65,0.300,103,0.72,"mt                                                "
23264,04/20/2010,"0800      ",6.25,0.78,0.370,96,0.93,"DF                                                "
23265,04/21/2010,"0810      ",5.99,0.83,0.390,92,0.93,"mt                                                "
23266,04/22/2010,"0810      ",6.01,0.72,0.140,103,1.36,"mt                                                "
23267,04/23/2010,"0820      ",5.90,0.71,0.160,106,0.89,"JF                                                "
23268,04/24/2010,"0950      ",6.01,0.76,0.280,88,1.24,"sbk                                               "
23269,04/25/2010,"850       ",5.99,0.77,0.180,86,1.27,"sbk                                               "
23270,04/26/2010,"0845      ",5.94,0.76,0.300,85,0.79,"TF                                                "
23271,04/27/2010,"0815      ",5.99,0.79,0.320,88,0.90,"MT                                                "
23272,04/28/2010,"0750      ",5.95,0.70,0.220,99,2.01,"MT                                                "
23273,04/29/2010,"0740      ",6.03,1.39,0.280,87,2.04,"mt                                                "
23274,04/30/2010,"1000      ",5.98,0.79,0.230,88,1.08,"JF                                                "
23275,05/01/2010,"0830      ",5.93,0.81,0.260,86,0.87,"TF                                                "
23276,05/02/2010,"900       ",6.03,0.79,0.220,94,1.03,"JR                                                "
23277,05/03/2010,"0825      ",6.58,0.82,0.360,89,0.88,"DF                                                "
23278,05/04/2010,"0805      ",5.98,0.85,0.210,98,2.21,"mt                                                "
23279,05/05/2010,"0750      ",5.96,0.85,0.240,61,0.90,"mt                                                "
23280,05/06/2010,"0750      ",6.07,0.87,0.330,100,1.92,"mt                                                "
23281,05/07/2010,"0910      ",5.87,1.27,0.440,155,6.10,"TF                                                "
23282,05/08/2010,"925       ",6.05,1.01,0.300,110,2.10,"sbk                                               "
23283,05/09/2010,"930       ",6.06,0.89,0.320,106,1.83,"sbk                                               "
23284,05/10/2010,"0840      ",6.15,0.91,0.350,103,0.95,"TF                                                "
23285,05/11/2010,"0830      ",5.97,0.89,0.270,118,1.54,"mt                                                "
23286,05/12/2010,"1110      ",6.09,0.91,0.170,111,0.63,"mt                                                "
23287,05/13/2010,"0815      ",6.26,0.93,0.310,103,0.83,"DF                                                "
23288,05/14/2010,"0810      ",6.08,0.89,0.210,105,0.68,"JF                                                "
23289,05/15/2010,"0855      ",5.94,0.94,0.320,96,0.83,"TF                                                "
23290,05/16/2010,"0853      ",5.92,0.90,0.460,94,0.77,"TF                                                "
23291,05/17/2010,"0755      ",6.22,1.01,0.380,93,0.98,"DF                                                "
23292,05/18/2010,"0750      ",6.09,0.99,0.350,93,1.04,"DF                                                "
23293,05/19/2010,"0745      ",6.30,0.99,0.380,100,1.00,"DF                                                "
23294,05/20/2010,"1420      ",5.98,1.02,0.330,108,1.64,"jr                                                "
23295,05/21/2010,"0900      ",6.03,0.98,0.230,101,1.12,"JF                                                "
23296,05/22/2010,"0805      ",6.08,0.99,0.260,98,1.03,"JF                                                "
23297,05/23/2010,"900       ",6.01,0.96,0.290,103,1.02,"sbk                                               "
23298,05/24/2010,"0825      ",6.17,0.98,0.180,106,0.98,"DF                                                "
23299,05/25/2010,"0245      ",6.18,1.00,0.360,105,0.83,"DF                                                "
23300,05/26/2010,"0720      ",6.20,1.04,0.380,109,1.19,"DF                                                "
23301,05/27/2010,"0655      ",5.62,1.07,0.370,100,0.91,"DF                                                "
23302,05/28/2010,"0825      ",6.07,1.06,0.320,105,1.24,"JF                                                "
23303,05/29/2010,"915       ",6.05,1.12,0.230,115,1.38,"sbk                                               "
23304,05/30/2010,"755       ",5.95,1.05,0.300,116,1.47,"sbk                                               "
23305,05/31/2010,"745       ",6.09,1.16,0.290,119,1.49,"tl                                                "
23306,06/01/2010,"0930      ",5.90,1.03,0.350,112,1.15,"SC                                                "
23307,06/02/2010,"840       ",5.95,1.11,0.370,121,1.18,"TCF                                               "
23308,06/03/2010,"0630      ",6.20,1.12,0.230,116,1.47,"DF                                                "
23309,06/04/2010,"810       ",5.98,1.12,0.340,119,1.24,"JF                                                "
23310,06/05/2010,"0920      ",6.04,1.03,0.460,116,1.25,"TF                                                "
23311,06/06/2010,"845       ",5.88,1.11,0.250,117,1.24,"sbk                                               "
23312,06/07/2010,"0800      ",5.86,1.12,0.450,117,1.08,"TF                                                "
23313,06/08/2010,"0630      ",6.13,1.12,0.460,120,1.23,"DF                                                "
23314,06/09/2010,"0620      ",6.12,1.10,0.400,111,0.99,"DF                                                "
23315,06/10/2010,"0720      ",6.17,1.08,0.380,109,0.96,"DF                                                "
23316,06/11/2010,"0805      ",5.96,1.10,0.370,107,0.89,"JF                                                "
23317,06/12/2010,"0740      ",5.92,1.08,0.410,104,0.87,"JF                                                "
23318,06/13/2010,"0825      ",5.92,1.07,0.460,100,0.91,"TF                                                "
23319,06/14/2010,"0630      ",6.11,1.11,0.430,92,0.95,"DF                                                "
23320,06/15/2010,"0635      ",6.14,1.11,0.470,89,1.03,"DF                                                "
23321,06/16/2010,"0950      ",5.92,1.14,0.460,84,0.75,"TCF                                               "
23322,06/17/2010,"0630      ",6.15,1.10,0.400,87,1.75,"DF                                                "
23323,06/18/2010,"0900      ",5.98,1.08,0.420,81,0.86,"JF                                                "
23324,06/19/2010,"815       ",5.98,1.08,0.510,79,1.05,"sbk                                               "
23325,06/20/2010,"0500      ",5.87,1.05,0.420,73,0.83,"sbk                                               "
23326,06/21/2010,"0600      ",6.05,1.11,0.310,74,0.83,"DF                                                "
23327,06/22/2010,"0630      ",6.18,1.05,0.430,72,1.26,"DF                                                "
23328,06/23/2010,"0630      ",6.53,1.05,0.470,71,1.11,"DF                                                "
23329,06/24/2010,"0620      ",6.10,1.04,0.510,68,1.18,"DF                                                "
23330,06/25/2010,"0825      ",6.07,1.03,0.460,73,0.98,"JF                                                "
23331,06/26/2010,"0910      ",5.90,1.05,0.620,68,1.24,"TF                                                "
23332,06/27/2010,"0500      ",5.93,1.10,0.630,60,0.88,"TF                                                "
23333,06/28/2010,"0600      ",6.58,1.04,0.440,61,1.20,"DF                                                "
23334,06/29/2010,"0540      ",5.97,1.09,0.490,63,2.20,"TF                                                "
23335,06/30/2010,"650       ",5.97,1.06,0.350,70,1.55,"TCF                                               "
23336,07/01/2010,"0630      ",6.20,1.08,0.390,66,2.60,"DF                                                "
23337,07/02/2010,"0635      ",5.97,1.09,0.440,67,1.28,"JF                                                "
23338,07/03/2010,"835       ",5.91,1.11,0.500,72,1.30,"jr                                                "
23339,07/04/2010,"0630      ",5.98,1.14,0.560,66,1.12,"DF                                                "
23340,07/05/2010,"0750      ",5.91,1.07,0.490,63,1.11,"TF                                                "
23341,07/06/2010,"0535      ",5.92,1.08,0.600,62,1.17,"TF                                                "
23342,07/07/2010,"0850      ",6.11,1.10,0.400,59,1.36,"DF                                                "
23343,07/08/2010,"0735      ",5.95,1.14,0.540,49,1.11,"TCF                                               "
23344,07/09/2010,"0815      ",5.88,1.11,0.510,45,1.31,"JF                                                "
23345,07/10/2010,"845       ",5.90,1.09,0.580,49,1.56,"sbk                                               "
23346,07/11/2010,"810       ",5.96,1.06,0.460,36,1.26,"sbk                                               "
23347,07/12/2010,"0630      ",6.16,1.05,0.370,37,1.17,"DF                                                "
23348,07/13/2010,"0635      ",6.18,0.86,0.230,32,1.08,"DF                                                "
23349,07/14/2010,"0700      ",6.07,1.06,0.530,34,1.06,"DF                                                "
23350,07/15/2010,"0720      ",6.28,1.10,0.480,39,1.25,"DF                                                "
23351,07/16/2010,"0800      ",5.96,1.09,0.560,46,1.32,"JF                                                "
23352,07/17/2010,"0900      ",6.00,1.06,0.550,44,1.28,"sbk                                               "
23353,07/18/2010,"0800      ",6.24,1.07,0.420,45,1.27,"DF                                                "
23354,07/19/2010,"0630      ",6.17,1.07,0.440,44,1.18,"DF                                                "
23355,07/20/2010,"0630      ",6.25,1.09,0.580,44,1.44,"DF                                                "
23356,07/21/2010,"0645      ",6.13,1.06,0.390,44,1.34,"DF                                                "
23357,07/22/2010,"0640      ",6.30,1.13,0.400,50,1.88,"DF                                                "
23358,07/23/2010,"0800      ",6.00,1.07,0.550,43,1.27,"JF                                                "
23359,07/24/2010,"920       ",5.84,1.10,0.490,42,1.49,"sbk                                               "
23360,07/25/2010,"0930      ",5.91,1.09,0.590,43,1.32,"sbk                                               "
23361,07/26/2010,"825       ",5.97,1.08,0.580,42,1.37,"sbk                                               "
23362,07/27/2010,"0630      ",6.09,1.08,0.470,42,1.21,"DF                                                "
23363,07/28/2010,"0630      ",6.07,1.13,0.760,50,2.10,"DF                                                "
23364,07/29/2010,"0650      ",6.02,1.06,0.390,43,1.44,"DF                                                "
23365,07/30/2010,"0800      ",5.98,1.08,0.540,42,1.51,"JF                                                "
23366,07/31/2010,"1015      ",6.14,1.08,0.570,43,1.62,"sbk                                               "
23367,08/01/2010,"0730      ",6.09,1.05,0.580,41,1.48,"DF                                                "
23368,08/02/2010,"0630      ",6.31,1.13,0.620,47,2.29,"DF                                                "
23369,08/03/2010,"0630      ",6.08,1.45,0.610,65,3.18,"DF                                                "
23370,08/04/2010,"0630      ",6.04,1.50,0.650,33,1.41,"DF                                                "
23371,08/05/2010,"0635      ",6.13,1.45,0.570,40,2.85,"DF                                                "
23372,08/06/2010,"0740      ",6.05,1.16,0.510,39,2.27,"JF                                                "
23373,08/07/2010,"0740      ",5.92,1.02,0.490,32,1.33,"mt                                                "
23374,08/08/2010,"900       ",5.82,1.12,0.650,34,1.34,"TCF                                               "
23375,08/09/2010,"800       ",6.11,1.09,0.680,33,1.33,"DF                                                "